Voltar ao catálogo

STARLINK-35536

AtivoComunicaçõesVLEO
NORAD 66261·PAYLOAD·🇺🇸 United States

Lançado Oct 29, 2025 de Cape Canaveral Space Force Station

Loading…

Próximas Passagens (próximas 24 horas)

TLE

AtualizadoSource: CelesTrak SupGP

Época: Sep 15, 2026, 03:22 UTC

1 66261C 25245AD  26258.14076389  .00028965  00000+0  93135-3 0  2581
2 66261  53.1570 122.2729 0001334 101.9447 321.4336 15.31689967    14

Acompanhe STARLINK-35536 em tempo real com AllMySat

Download on the App Store